[[{"header":{"parameterUnit":"m.s-1","parameterCategory":1,"la1":30.2991,"la2":30.254,"lo1":-89.0895,"lo2":-89.0444,"dy":0.0017,"dx":0.0017,"nx":28,"ny":28,"refTime":"2025-01-31T03:00:00:Z","depth":0,"parameterNumber":2,"parameterNumberName":"U-component_of_WINDS"},"data":[0,0,0,0,0,0,0,0,0,0,0,0,0,0,0,0,0,0,0,0,0,0,0,0,0,0,0,0,0,0,0,0,0,0,0,0,0,0,0,0,0,0,0,0,0,0,0,0,0,0,0,0,0,0,0,0,0,0,1.8724,1.8724,0,1.8739,1.8739,1.8739,1.8704,1.8703,1.8702,1.8701,1.8719,1.872,1.8722,0,0,0,0,0,0,0,0,0,0,0,0,0,1.8667,1.8669,1.8724,1.8724,1.8724,1.8739,1.8739,1.8739,1.8705,1.8703,1.8702,1.8701,1.8718,1.872,1.8722,0,0,0,0,0,0,0,0,0,0,0,0,0,1.8688,1.8669,1.8724,1.8708,1.8707,1.8739,1.8739,1.8739,1.8705,1.8703,1.8702,1.87,1.8718,1.872,1.8722,1.877,0,0,1.8729,1.873,0,0,0,0,0,0,0,0,1.8687,1.869,1.871,1.871,1.8708,1.8718,1.8726,1.875,1.8705,1.8706,1.8701,1.8699,1.872,1.8722,1.8729,1.877,1.8771,1.8729,1.8731,1.8732,1.8732,0,0,0,0,0,0,0,1.8686,1.8689,1.873,1.8711,1.8709,1.8702,1.8703,1.873,1.8722,1.8706,1.8703,1.8705,1.8719,1.8726,1.8729,1.8771,1.8729,1.8731,1.8732,1.8733,1.8856,1.8858,0,0,0,0,0,0,1.8686,1.8688,1.8729,1.873,1.8693,1.8704,1.8705,1.8717,1.8722,1.8721,1.8707,1.8704,1.8723,1.8726,1.8729,1.8787,1.8731,1.8734,1.8735,1.8854,1.8856,1.8858,0,0,0,0,0,0,1.8685,1.869,1.8729,1.8709,1.8713,1.8707,1.872,1.8718,1.8725,1.8723,1.8721,1.8716,1.8722,1.8726,1.876,1.8787,1.8735,1.8737,1.8852,1.8855,1.8857,1.8901,0,0,0,0,0,0,1.8683,1.869,1.8707,1.8709,1.8714,1.8759,1.8721,1.8719,1.8729,1.8725,1.8731,1.873,1.8721,1.8757,1.8763,1.8789,1.8738,1.8849,1.8853,1.8856,1.8898,1.8905,1.8912,0,0,0,0,0,1.8681,1.8718,1.8708,1.8713,1.8735,1.876,1.8763,1.8752,1.8731,1.8749,1.8748,1.873,1.8783,1.8761,1.8767,1.8794,1.8847,1.8852,1.8856,1.8894,1.8904,1.8912,0,0,0,0,0,0,1.8719,1.8718,1.8706,1.8745,1.8753,1.8754,1.8776,1.8762,1.8776,1.8772,1.8758,1.8759,1.8797,1.8799,1.8774,1.8842,1.8812,1.8818,1.8839,1.8848,1.8855,1.8854,1.874,0,0,0,0,0,1.8732,1.8751,1.875,1.8784,1.8789,1.8782,1.8792,1.8783,1.8791,1.8794,1.8795,1.8804,1.8823,1.8835,1.8852,1.8898,1.89,1.892,1.8927,1.8933,1.8938,1.8965,1.8974,1.8872,1.8872,1.8872,0,0,1.8759,1.8761,1.8774,1.8792,1.8797,1.8819,1.8785,1.8809,1.8825,1.8798,1.883,1.8832,1.8841,1.8881,1.8899,1.8884,1.8967,1.8939,1.8943,1.8945,1.897,1.898,1.8988,1.8875,1.8875,1.8874,0,0,1.8819,1.8822,1.8851,1.8857,1.8865,1.8861,1.8868,1.8872,1.8872,1.8904,1.8885,1.8905,1.8937,1.8945,1.8953,1.9018,1.9003,1.9024,1.9063,1.9088,1.9096,1.9103,1.9128,1.9137,1.9029,1.903,1.903,0,1.8851,1.8882,1.8869,1.8894,1.8904,1.888,1.8912,1.8918,1.8931,1.8939,1.8922,1.8963,1.8968,1.9011,1.9027,1.9034,1.9043,1.9024,1.9096,1.9103,1.911,1.9133,1.9143,1.9032,1.9032,1.9032,1.9031,0,1.8922,1.8944,1.8968,1.8981,1.8993,1.9022,1.9014,1.9028,1.9019,1.9016,1.9051,1.9056,1.9074,1.9084,1.9074,1.9126,1.9117,1.9098,1.9068,1.9122,1.9144,1.9153,1.9036,1.9035,1.9034,1.9034,0,0,1.9006,1.9013,1.9022,1.9029,1.9037,1.9054,1.9082,1.91,1.9113,1.9124,1.9148,1.9177,1.916,1.917,1.9161,1.9184,1.9238,1.9163,1.9163,1.9178,1.9298,1.9312,1.9323,1.9227,1.9229,1.923,1.9297,0,1.9066,1.9114,1.9104,1.9151,1.9173,1.9151,1.9176,1.9185,1.9184,1.9203,1.9202,1.9223,1.9199,1.9205,1.9226,1.9227,1.9262,1.9221,1.9251,1.9253,1.9251,1.9334,1.9349,1.9412,1.9306,1.9307,1.9308,0,1.9143,1.9157,1.9206,1.9213,1.9221,1.9244,1.926,1.9278,1.9288,1.9286,1.9298,1.9285,1.9315,1.9284,1.9326,1.9299,1.9311,1.9313,1.9316,1.9319,1.9284,1.9341,1.9432,1.9442,1.9321,1.932,1.9319,0,1.9201,1.9232,1.9266,1.9272,1.928,1.9297,1.9301,1.9309,1.9321,1.9336,1.9344,1.9363,1.9373,1.9388,1.9382,1.936,1.9426,1.9394,1.9427,1.9427,1.9442,1.9441,1.9538,1.9448,1.9448,1.9448,1.9447,0,1.927,1.9302,1.9292,1.9313,1.9349,1.9338,1.9373,1.9375,1.9383,1.9405,1.9388,1.941,1.9399,1.9421,1.9416,1.9453,1.9457,1.9458,1.9456,1.946,1.946,1.9468,1.9464,1.945,1.945,1.9449,1.9449,0,1.9341,1.9335,1.9372,1.9376,1.9379,1.9405,1.9409,1.943,1.9428,1.9457,1.9463,1.9461,1.9485,1.9481,1.9507,1.9504,1.9551,1.9543,1.9547,1.9546,1.9579,1.9577,1.9685,1.9699,1.9599,1.96,1.9601,0,1.9386,1.941,1.9417,1.9431,1.9436,1.9458,1.9471,1.9461,1.9475,1.949,1.9509,1.9532,1.9549,1.959,1.9591,1.9613,1.9606,1.9643,1.9609,1.9613,1.9609,1.9608,1.9611,1.965,1.9651,1.9652,1.9653,0,1.9467,1.9463,1.9481,1.95,1.9515,1.9529,1.9542,1.9554,1.9546,1.9563,1.9587,1.9601,1.9629,1.9653,1.9673,1.9679,1.9665,1.9663,1.9672,1.9676,1.9678,1.9679,1.9567,1.9661,1.966,1.9659,1.9659,1.9659,1.9527,1.9548,1.9557,1.9579,1.9587,1.96,1.962,1.9621,1.9641,1.9663,1.9656,1.9685,1.9696,1.9722,1.973,1.9753,1.974,1.9752,1.9756,1.9759,1.9764,1.9674,1.9757,1.9756,1.9756,1.9756,1.9756,0,1.9608,1.9613,1.9633,1.9651,1.9669,1.9654,1.9668,1.9684,1.9709,1.972,1.9739,1.9768,1.9792,1.9796,1.9818,1.9836,1.9831,1.9843,1.9842,1.9844,1.9774,1.9765,1.9847,1.9847,1.9847,1.9847,1.9847,1.9847,1.9652,1.9688,1.9686,1.9726,1.9731,1.9759,1.9768,1.978,1.979,1.9823,1.9843,1.9845,1.9854,1.9878,1.9899,1.99,1.991,1.9924,1.9923,1.9858,1.9849,1.984,1.9831,1.9926,1.9926,1.9991,1.9992,1.9992]},{"header":{"parameterUnit":"m.s-1","parameterCategory":1,"la1":30.2991,"la2":30.254,"lo1":-89.0895,"lo2":-89.0444,"dy":0.0017,"dx":0.0017,"nx":28,"ny":28,"refTime":"2025-01-31T03:00:00:Z","depth":0,"parameterNumber":3,"parameterNumberName":"V-component_of_WINDS"},"data":[0,0,0,0,0,0,0,0,0,0,0,0,0,0,0,0,0,0,0,0,0,0,0,0,0,0,0,0,0,0,0,0,0,0,0,0,0,0,0,0,0,0,0,0,0,0,0,0,0,0,0,0,0,0,0,0,0,0,-3.1742,-3.1743,0,-3.1806,-3.1806,-3.1807,-3.1777,-3.1776,-3.1774,-3.1772,-3.1837,-3.184,-3.1843,0,0,0,0,0,0,0,0,0,0,0,0,0,-3.1595,-3.1598,-3.1742,-3.1743,-3.1744,-3.1806,-3.1806,-3.1807,-3.1777,-3.1776,-3.1774,-3.1772,-3.1836,-3.184,-3.1844,0,0,0,0,0,0,0,0,0,0,0,0,0,-3.1659,-3.1599,-3.1742,-3.1736,-3.1736,-3.1805,-3.1806,-3.1808,-3.1778,-3.1775,-3.1773,-3.1771,-3.1835,-3.1839,-3.1844,-3.1922,0,0,-3.1859,-3.1861,0,0,0,0,0,0,0,0,-3.1655,-3.1664,-3.1736,-3.1737,-3.1737,-3.1781,-3.1778,-3.1846,-3.1779,-3.1762,-3.1772,-3.177,-3.182,-3.1826,-3.1843,-3.1925,-3.1928,-3.1859,-3.1862,-3.1864,-3.1866,0,0,0,0,0,0,0,-3.1651,-3.1661,-3.1767,-3.1737,-3.1738,-3.1731,-3.1737,-3.1791,-3.1804,-3.1763,-3.1761,-3.1769,-3.182,-3.1839,-3.1845,-3.1929,-3.1859,-3.1863,-3.1866,-3.1868,-3.2079,-3.2082,0,0,0,0,0,0,-3.1647,-3.1658,-3.1765,-3.1769,-3.1689,-3.1735,-3.1742,-3.1769,-3.1803,-3.1806,-3.1771,-3.1768,-3.1832,-3.1839,-3.1847,-3.1942,-3.1864,-3.1869,-3.1871,-3.2077,-3.208,-3.2083,0,0,0,0,0,0,-3.1644,-3.1657,-3.1763,-3.1713,-3.1726,-3.174,-3.1771,-3.1772,-3.1791,-3.1809,-3.1811,-3.1788,-3.183,-3.184,-3.1904,-3.1943,-3.1871,-3.1875,-3.2074,-3.2078,-3.2082,-3.2131,0,0,0,0,0,0,-3.164,-3.1656,-3.1685,-3.1714,-3.1729,-3.1819,-3.1773,-3.1775,-3.1799,-3.1795,-3.1826,-3.1828,-3.1829,-3.1897,-3.1909,-3.1949,-3.1879,-3.207,-3.2075,-3.208,-3.2126,-3.2137,-3.2146,0,0,0,0,0,-3.1634,-3.1696,-3.1687,-3.17,-3.1766,-3.1821,-3.183,-3.1829,-3.1802,-3.1833,-3.1845,-3.1827,-3.1937,-3.1904,-3.1917,-3.1959,-3.2068,-3.2074,-3.208,-3.2122,-3.2135,-3.2145,0,0,0,0,0,0,-3.1671,-3.17,-3.169,-3.1763,-3.179,-3.1816,-3.1854,-3.1842,-3.1878,-3.1872,-3.187,-3.1877,-3.1944,-3.1957,-3.192,-3.2037,-3.1998,-3.2007,-3.2026,-3.2038,-3.2047,-3.2043,-3.1883,0,0,0,0,0,-3.1688,-3.1731,-3.1753,-3.1815,-3.1829,-3.184,-3.1863,-3.1861,-3.1889,-3.19,-3.1917,-3.1944,-3.1985,-3.2012,-3.205,-3.2128,-3.2135,-3.2163,-3.2173,-3.2181,-3.2189,-3.2232,-3.2246,-3.2103,-3.2103,-3.2103,0,0,-3.1723,-3.1744,-3.1771,-3.1823,-3.1844,-3.1888,-3.1849,-3.1897,-3.1931,-3.1907,-3.1969,-3.1983,-3.2013,-3.2085,-3.2117,-3.2098,-3.223,-3.2188,-3.2194,-3.2199,-3.224,-3.2253,-3.2265,-3.2107,-3.2106,-3.2106,0,0,-3.1809,-3.1829,-3.1884,-3.1906,-3.1938,-3.1944,-3.1957,-3.1986,-3.1994,-3.2056,-3.204,-3.2079,-3.2149,-3.2172,-3.2193,-3.229,-3.2276,-3.2302,-3.2353,-3.2395,-3.2406,-3.2416,-3.2452,-3.2465,-3.231,-3.231,-3.231,0,-3.1849,-3.1915,-3.1913,-3.1964,-3.1988,-3.1969,-3.2025,-3.2046,-3.2089,-3.2106,-3.2084,-3.2173,-3.2192,-3.227,-3.2293,-3.231,-3.2326,-3.2299,-3.2405,-3.2415,-3.2424,-3.2458,-3.2472,-3.2313,-3.2313,-3.2313,-3.2312,0,-3.1962,-3.2009,-3.2049,-3.2092,-3.2121,-3.2173,-3.218,-3.2209,-3.2204,-3.2213,-3.2278,-3.23,-3.2343,-3.2361,-3.2357,-3.2439,-3.2426,-3.2405,-3.2366,-3.2441,-3.2473,-3.2486,-3.2318,-3.2317,-3.2316,-3.2315,0,0,-3.2074,-3.2116,-3.2131,-3.2151,-3.2186,-3.2221,-3.2274,-3.2317,-3.2342,-3.2372,-3.2417,-3.2477,-3.2458,-3.2482,-3.2479,-3.2516,-3.2594,-3.2491,-3.2491,-3.251,-3.2687,-3.2704,-3.2719,-3.2584,-3.2586,-3.2588,-3.2685,0,-3.2164,-3.2256,-3.2257,-3.2341,-3.2385,-3.2368,-3.2414,-3.244,-3.245,-3.2489,-3.2499,-3.2543,-3.2513,-3.2528,-3.2564,-3.2577,-3.2629,-3.2569,-3.2626,-3.2628,-3.262,-3.2736,-3.2754,-3.2844,-3.2697,-3.2699,-3.2701,0,-3.2281,-3.2317,-3.2406,-3.2436,-3.2454,-3.2495,-3.2536,-3.2572,-3.2602,-3.2607,-3.2634,-3.2626,-3.268,-3.2639,-3.2714,-3.2673,-3.2696,-3.2706,-3.271,-3.2716,-3.267,-3.2747,-3.2872,-3.2886,-3.272,-3.2719,-3.2718,0,-3.2356,-3.2425,-3.2488,-3.2506,-3.2541,-3.2571,-3.2587,-3.2615,-3.2641,-3.2676,-3.2693,-3.2734,-3.2756,-3.2788,-3.2792,-3.2761,-3.2868,-3.2826,-3.2874,-3.2874,-3.2898,-3.2896,-3.303,-3.291,-3.291,-3.291,-3.291,0,-3.2457,-3.2513,-3.2523,-3.2561,-3.2624,-3.2624,-3.2686,-3.2699,-3.2724,-3.2766,-3.2753,-3.2793,-3.2795,-3.2835,-3.2838,-3.29,-3.291,-3.2916,-3.2916,-3.2918,-3.2918,-3.2934,-3.2928,-3.2913,-3.2913,-3.2912,-3.2911,0,-3.2551,-3.2559,-3.2627,-3.2656,-3.2665,-3.271,-3.2734,-3.2772,-3.2781,-3.2834,-3.2846,-3.286,-3.2907,-3.2914,-3.2968,-3.2971,-3.3046,-3.3039,-3.3036,-3.3036,-3.3083,-3.3079,-3.3234,-3.3255,-3.312,-3.3121,-3.3122,0,-3.2615,-3.2658,-3.2692,-3.2719,-3.2738,-3.2781,-3.2809,-3.2811,-3.2839,-3.2877,-3.2911,-3.2956,-3.2993,-3.3069,-3.3085,-3.3127,-3.3122,-3.3173,-3.3128,-3.3129,-3.3124,-3.3123,-3.3128,-3.3182,-3.3183,-3.3185,-3.3186,0,-3.273,-3.2733,-3.2772,-3.2815,-3.2848,-3.2881,-3.2912,-3.2935,-3.2941,-3.2974,-3.3022,-3.3051,-3.3108,-3.3154,-3.3196,-3.3212,-3.3201,-3.32,-3.3213,-3.3216,-3.3213,-3.3217,-3.3062,-3.3196,-3.3195,-3.3194,-3.3194,-3.3193,-3.2812,-3.285,-3.2881,-3.2926,-3.295,-3.2979,-3.3017,-3.3031,-3.3071,-3.3118,-3.3117,-3.317,-3.32,-3.3255,-3.3275,-3.3317,-3.3301,-3.332,-3.3325,-3.333,-3.3336,-3.3206,-3.3324,-3.3324,-3.3324,-3.3324,-3.3323,0,-3.2928,-3.2947,-3.2988,-3.3033,-3.3069,-3.3055,-3.3089,-3.312,-3.3167,-3.3196,-3.3233,-3.329,-3.3335,-3.3354,-3.3398,-3.3428,-3.3424,-3.344,-3.3439,-3.3443,-3.3347,-3.3332,-3.3443,-3.3443,-3.3443,-3.3443,-3.3443,-3.3443,-3.2992,-3.3056,-3.3063,-3.3139,-3.3157,-3.321,-3.3231,-3.3259,-3.3282,-3.3346,-3.3384,-3.3396,-3.3421,-3.3468,-3.3508,-3.3513,-3.353,-3.3549,-3.3552,-3.3462,-3.345,-3.3438,-3.3424,-3.3553,-3.3553,-3.3644,-3.3645,-3.3646]}]]